Paso Robles, CA

9:46 AM PST on December 12, 2019 (GMT -0800)
Paso Robles Municipal

Weather History for KPRB - October, 2019

Change the Weather History Date:

Monday, October 7, 2019

  Actual Average Record
Temperature  
Mean Temperature 70 °F 64 °F  
Max Temperature 93 °F 82 °F 104 °F (1996)
Min Temperature 46 °F 46 °F 36 °F (2007)
Degree Days  
Heating Degree Days 0 3  
Month to date heating degree days 30 17  
Since 1 July heating degree days 56 49  
Cooling Degree Days 4 2  
Month to date cooling degree days 7 18  
Year to date cooling degree days 1042 909  
Growing Degree Days 20 (Base 50)    
Moisture  
Dew Point 35 °F    
Average Humidity 36    
Maximum Humidity 61    
Minimum Humidity 10    
Precipitation  
Precipitation 0.00 in 0.02 in 0.30 in (1973)
Month to date precipitation 0.00 0.09  
Year to date precipitation 11.28 9.21  
Sea Level Pressure  
Sea Level Pressure 29.94 in    
Wind  
Wind Speed 2 mph ()    
Max Wind Speed 14 mph    
Max Gust Speed 17 mph    
Visibility 10.0 miles    
Events      
T = Trace of Precipitation, MM = Missing Value Source: Averaged Metar Reports

Daily Weather History Graph

Daily Weather History Graph

Search for Another Location

Airport or City:

Astronomy

Oct. 07, 2019 Rise Set
Actual Time 7:02 AM PDT 6:37 PM PDT
Civil Twilight 6:36 AM PDT 7:03 PM PDT
Nautical Twilight 6:07 AM PDT 7:32 PM PDT
Astronomical Twilight 5:37 AM PDT 8:02 PM PDT
Moon 3:49 PM PDT (10/7) 1:14 AM PDT (10/7)
Length of Visible Light 12h 26m
Length of Day
11h 35m
Waxing Gibbous, 70% of the Moon is Illuminated
Oct 7
Waxing Gibbous
Oct 13
Full
Oct 21
Last Quarter
Oct 27
New
Nov 4
First Quarter

Hourly Weather History & Observations

Time (PDT) Temp. Dew Point Humidity Pressure Visibility Wind Dir Wind Speed Gust Speed Precip Events Conditions
12:53 AM 55.0 °F 33.1 °F 43% 30.00 in 10.0 mi Calm Calm - N/A   Clear
1:53 AM 54.0 °F 34.0 °F 47% 30.00 in 10.0 mi Calm Calm - N/A   Clear
2:53 AM 52.0 °F 33.1 °F 49% 29.98 in 10.0 mi Calm Calm - N/A   Clear
3:53 AM 52.0 °F 35.1 °F 53% 29.96 in 10.0 mi Calm Calm - N/A   Clear
4:53 AM 50.0 °F 34.0 °F 54% 29.97 in 10.0 mi Calm Calm - N/A   Clear
5:53 AM 48.0 °F 34.0 °F 58% 29.99 in 10.0 mi Calm Calm - N/A   Clear
6:53 AM 46.9 °F 33.1 °F 59% 30.01 in 10.0 mi South 3.5 mph - N/A   Clear
7:53 AM 48.9 °F 35.1 °F 59% 30.01 in 10.0 mi South 3.5 mph - N/A   Clear
8:53 AM 57.0 °F 37.0 °F 47% 30.02 in 10.0 mi SSW 3.5 mph - N/A   Clear
9:53 AM 64.9 °F 37.9 °F 37% 30.01 in 10.0 mi Calm Calm - N/A   Clear
10:53 AM 72.0 °F 37.0 °F 28% 29.99 in 10.0 mi Calm Calm - N/A   Clear
11:53 AM 80.1 °F 39.0 °F 23% 29.97 in 10.0 mi Variable 3.5 mph - N/A   Clear
12:53 PM 84.9 °F 37.9 °F 19% 29.94 in 10.0 mi WSW 4.6 mph - N/A   Clear
1:53 PM 90.0 °F 30.0 °F 12% 29.90 in 10.0 mi Variable 3.5 mph - N/A   Clear
2:53 PM 91.9 °F 32.0 °F 12% 29.88 in 10.0 mi Variable 4.6 mph - N/A   Clear
3:53 PM 91.9 °F 28.0 °F 10% 29.87 in 10.0 mi SW 8.1 mph - N/A   Clear
4:53 PM 90.0 °F 26.1 °F 10% 29.87 in 10.0 mi SW 11.5 mph - N/A   Clear
5:53 PM 84.9 °F 34.0 °F 16% 29.87 in 10.0 mi SSW 13.8 mph - N/A   Clear
6:53 PM 78.1 °F 37.0 °F 23% 29.88 in 10.0 mi South 11.5 mph - N/A   Clear
7:53 PM 73.0 °F 37.0 °F 27% 29.88 in 10.0 mi South 8.1 mph - N/A   Clear
8:53 PM 66.0 °F 37.9 °F 36% 29.91 in 10.0 mi NNE 3.5 mph - N/A   Clear
9:53 PM 63.0 °F 37.0 °F 38% 29.91 in 10.0 mi Calm Calm - N/A   Clear
10:53 PM 55.9 °F 37.0 °F 49% 29.93 in 10.0 mi Calm Calm - N/A   Clear
11:53 PM 54.0 °F 35.1 °F 49% 29.93 in 10.0 mi NE 3.5 mph - N/A   Clear